This is the latest recevied weather packets stored in our database for station/object K1RFS. If no packets are shown the sender has not sent any weather packets the latest 10 day(s).
| Time | Temp. | Humidity | Pressure | Rain* | Wind** | Luminosity | Snow |
|---|---|---|---|---|---|---|---|
| 1777606287 | 10.56° C | 37% | 1002.8 hPa | 0 mm | - | 0 W/m² | - |
| 1777605982 | 10.56° C | 37% | 1002.6 hPa | 0 mm | - | 0 W/m² | - |
| 1777605679 | 10.56° C | 36% | 1002.6 hPa | 0 mm | - | 0 W/m² | - |
| 1777605378 | 11.11° C | 36% | 1002.4 hPa | 0 mm | - | 0 W/m² | - |
| 1777605075 | 11.11° C | 35% | 1002.4 hPa | 0 mm | - | 0 W/m² | - |
| 1777604770 | 11.11° C | 35% | 1002.4 hPa | 0 mm | - | 0 W/m² | - |
| 1777604468 | 11.11° C | 35% | 1002.5 hPa | 0 mm | - | 0 W/m² | - |
| 1777604167 | 11.11° C | 35% | 1002.2 hPa | 0 mm | - | 0 W/m² | - |
| 1777603864 | 11.67° C | 35% | 1002.1 hPa | 0 mm | - | 0 W/m² | - |
| 1777603560 | 11.67° C | 35% | 1002.3 hPa | 0 mm | - | 0 W/m² | - |
| 1777603256 | 11.67° C | 35% | 1002.2 hPa | 0 mm | - | 0 W/m² | - |
| 1777602952 | 11.67° C | 34% | 1002.3 hPa | 0 mm | - | 1 W/m² | - |
| 1777602647 | 12.22° C | 34% | 1002.3 hPa | 0 mm | - | 1 W/m² | - |
| 1777602342 | 12.22° C | 34% | 1002.1 hPa | 0 mm | - | 2 W/m² | - |
| 1777602039 | 12.78° C | 34% | 1002.2 hPa | 0 mm | - | 3 W/m² | - |
| 1777601733 | 12.78° C | 33% | 1002 hPa | 0 mm | - | 5 W/m² | - |
| 1777601429 | 12.78° C | 33% | 1002.2 hPa | 0 mm | - | 8 W/m² | - |
| 1777601126 | 13.33° C | 32% | 1002 hPa | 0 mm | - | 11 W/m² | - |
| 1777600824 | 13.89° C | 31% | 1002 hPa | 0 mm | - | 14 W/m² | - |
| 1777600524 | 13.89° C | 30% | 1002.1 hPa | 0 mm | - | 26 W/m² | - |
| 1777600220 | 13.89° C | 30% | 1002.1 hPa | 0 mm | - | 35 W/m² | - |
| 1777599916 | 14.44° C | 30% | 1002.1 hPa | 0 mm | - | 49 W/m² | - |
| 1777599613 | 14.44° C | 30% | 1002.1 hPa | 0 mm | - | 58 W/m² | - |
| 1777599309 | 14.44° C | 30% | 1002 hPa | 0 mm | - | 65 W/m² | - |
| 1777599006 | 13.89° C | 31% | 1002.1 hPa | 0 mm | - | 67 W/m² | - |
* Rain latest hour (hover to see other rain measurements)
** Current wind speed in m/s (hover to see current wind gust speed)